Tracking 18980 objects as of 22-Feb-2018
HD Live streaming from Space Station
objects crossing your sky now

SL-12 R/B(2)

Track SL-12 R/B(2) now!


NORAD ID: 27404
Int'l Code: 2002-016B
Perigee: 3,428.6 km
Apogee: 35,962.9 km
Inclination: 24.5 °
Period: 698.1 minutes
Semi major axis: 26066 km
RCS: 19.7997 m2 (large)
Launch date: March 30, 2002
Source: Commonwealth of Independent States (former USSR) (CIS)
Launch site: TYURATAM MISSILE AND SPACE COMPLEX (TTMTR)

Note: This is a ROCKET BODY
aabbcc
Your satellite tracking list
Your tracking list is empty




NASA's NSSDC Master Catalog

Two Line Element Set (TLE):
1 27404U 02016B   18052.67776315  .00000128  00000-0  00000+0 0  9994
2 27404  24.4665 145.6455 6240581 320.9749   7.5905  2.06287445119810
Source of the keplerian elements: AFSPC